Location: Unspecified
(40.7945°N, 111.1337°W)
Time: 16:43:41
(UTC-06:00)

Resurs 1-4 Rocket - Pass Details

Date: 28 March 2019
Orbit: 799 x 815 km, 98.6° (Epoch: 22 April)

Event Time Altitude Azimuth Distance (km) Brightness Sun altitude
Rises 03:26:14 0° 11° (N) 3,326 6.0 -38.8°
Reaches altitude 10° 03:28:35 10° 9° (N) 2,389 5.1 -38.5°
Enters shadow 03:30:17 21° 7° (N) 1,734 4.2 -38.3°
